THA312 VECC-VTBS

Flight info

Callsign THA312
Flight time 2h 10m
Altitude 37000
Route DOPID2C DOPID P646 TARED DCT WILLA WILLA1C
Aircraft A320/M-SDE3FGHIRWY/LB1

Departure

Time 2026-04-24 12:22
Airport Netaji Subhash Chandra Bose International Airport (VECC)

Arrival

Time 2026-04-24 14:33
Airport Suvarnabhumi Airport (VTBS)
Time Latitude Longitude Altitude Speed Heading
2026-04-24 11:41 22.64747 88.44103 25 ft 0 kts 275°
2026-04-24 12:10 22.64746 88.44107 -3 ft 2 kts 275°
2026-04-24 12:10 22.64744 88.44127 27 ft 3 kts 277°
2026-04-24 12:10 22.64741 88.44149 26 ft 3 kts 281°
2026-04-24 12:11 22.64730 88.44190 27 ft 3 kts 303°
2026-04-24 12:11 22.64725 88.44198 24 ft 0 kts 308°
2026-04-24 12:14 22.64730 88.44196 26 ft 1 kts 340°
2026-04-24 12:14 22.64758 88.44198 25 ft 6 kts
2026-04-24 12:14 22.64807 88.44203 24 ft 8 kts
2026-04-24 12:15 22.64868 88.44210 25 ft 10 kts
2026-04-24 12:15 22.64940 88.44218 26 ft 11 kts
2026-04-24 12:15 22.65021 88.44231 24 ft 12 kts 10°
2026-04-24 12:15 22.65077 88.44299 24 ft 13 kts 66°
2026-04-24 12:16 22.65118 88.44395 25 ft 15 kts 56°
2026-04-24 12:16 22.65213 88.44426 24 ft 15 kts
2026-04-24 12:16 22.65323 88.44438 25 ft 16 kts
2026-04-24 12:16 22.65437 88.44452 29 ft 17 kts
2026-04-24 12:17 22.65518 88.44461 28 ft 9 kts
2026-04-24 12:17 22.65588 88.44470 27 ft 11 kts
2026-04-24 12:17 22.65678 88.44481 28 ft 14 kts
2026-04-24 12:17 22.65780 88.44492 26 ft 15 kts
2026-04-24 12:18 22.65883 88.44459 27 ft 16 kts 348°
2026-04-24 12:18 22.65996 88.44450 26 ft 17 kts
2026-04-24 12:18 22.66120 88.44466 25 ft 19 kts
2026-04-24 12:18 22.66256 88.44483 25 ft 20 kts
2026-04-24 12:19 22.66400 88.44499 27 ft 22 kts
2026-04-24 12:19 22.66554 88.44522 25 ft 23 kts
2026-04-24 12:19 22.66702 88.44555 25 ft 22 kts 12°
2026-04-24 12:19 22.66860 88.44579 27 ft 24 kts
2026-04-24 12:20 22.67028 88.44596 28 ft 25 kts
2026-04-24 12:20 22.67197 88.44614 29 ft 20 kts
2026-04-24 12:20 22.67281 88.44692 27 ft 17 kts 61°
2026-04-24 12:20 22.67333 88.44809 27 ft 18 kts 77°
2026-04-24 12:21 22.67326 88.44948 28 ft 18 kts 109°
2026-04-24 12:21 22.67263 88.44988 28 ft 0 kts 186°
2026-04-24 12:21 22.67253 88.44986 28 ft 4 kts 186°
2026-04-24 12:21 22.67114 88.44969 29 ft 41 kts 186°
2026-04-24 12:22 22.66550 88.44904 23 ft 119 kts 186°
2026-04-24 12:22 22.65529 88.44794 136 ft 165 kts 185°
2026-04-24 12:22 22.64388 88.44667 904 ft 167 kts 186°
2026-04-24 12:22 22.63238 88.44679 1628 ft 166 kts 164°
2026-04-24 12:23 22.62215 88.45357 1905 ft 186 kts 133°
2026-04-24 12:23 22.61382 88.46546 2070 ft 210 kts 128°
2026-04-24 12:23 22.60456 88.47885 2320 ft 234 kts 129°
2026-04-24 12:23 22.59441 88.49341 2632 ft 256 kts 128°
2026-04-24 12:24 22.58347 88.50911 3247 ft 265 kts 127°
2026-04-24 12:24 22.57221 88.52523 3930 ft 271 kts 127°
2026-04-24 12:24 22.56069 88.54170 4587 ft 278 kts 126°
2026-04-24 12:24 22.54889 88.55854 5227 ft 283 kts 126°
2026-04-24 12:25 22.53692 88.57557 5939 ft 285 kts 127°
2026-04-24 12:25 22.52480 88.59278 6610 ft 289 kts 127°
2026-04-24 12:25 22.51251 88.61021 7276 ft 293 kts 127°
2026-04-24 12:25 22.50012 88.62776 7890 ft 299 kts 127°
2026-04-24 12:26 22.48740 88.64577 8553 ft 303 kts 127°
2026-04-24 12:26 22.47448 88.66409 9194 ft 308 kts 127°
2026-04-24 12:26 22.46081 88.68228 9811 ft 313 kts 136°
2026-04-24 12:26 22.44336 88.69589 10412 ft 314 kts 154°
2026-04-24 12:27 22.42291 88.70627 10598 ft 335 kts 156°
2026-04-24 12:27 22.40103 88.71706 10726 ft 355 kts 156°
2026-04-24 12:27 22.37838 88.72815 11096 ft 364 kts 156°
2026-04-24 12:27 22.35505 88.73960 11635 ft 368 kts 156°
2026-04-24 12:28 22.33164 88.75112 12166 ft 371 kts 156°
2026-04-24 12:28 22.30799 88.76281 12724 ft 374 kts 155°
2026-04-24 12:28 22.28433 88.77452 13370 ft 374 kts 155°
2026-04-24 12:28 22.26065 88.78627 13935 ft 375 kts 155°
2026-04-24 12:29 22.23686 88.79806 14461 ft 376 kts 155°
2026-04-24 12:29 22.21324 88.80972 14979 ft 378 kts 155°
2026-04-24 12:29 22.18919 88.82158 15496 ft 380 kts 156°
2026-04-24 12:29 22.16509 88.83346 16005 ft 382 kts 156°
2026-04-24 12:30 22.14083 88.84541 16517 ft 383 kts 156°
2026-04-24 12:30 22.11678 88.85728 17003 ft 385 kts 156°
2026-04-24 12:30 22.09237 88.86933 17535 ft 387 kts 156°
2026-04-24 12:30 22.06776 88.88146 18050 ft 388 kts 156°
2026-04-24 12:31 22.04306 88.89363 18489 ft 391 kts 156°
2026-04-24 12:31 22.01817 88.90589 18860 ft 395 kts 157°
2026-04-24 12:31 22.00157 88.91406 19114 ft 397 kts 157°
2026-04-24 12:31 21.97637 88.92648 19505 ft 400 kts 157°
2026-04-24 12:32 21.94256 88.94306 20017 ft 404 kts 157°
2026-04-24 12:32 21.92515 88.95157 20286 ft 406 kts 157°
2026-04-24 12:32 21.89962 88.96408 20677 ft 409 kts 157°
2026-04-24 12:32 21.87355 88.97690 21065 ft 412 kts 157°
2026-04-24 12:33 21.84723 88.98984 21449 ft 415 kts 157°
2026-04-24 12:33 21.82078 89.00285 21824 ft 418 kts 157°
2026-04-24 12:33 21.79453 89.01577 22178 ft 421 kts 158°
2026-04-24 12:33 21.76765 89.02899 22506 ft 425 kts 158°
2026-04-24 12:34 21.74062 89.04226 22853 ft 428 kts 158°
2026-04-24 12:34 21.71339 89.05563 23192 ft 431 kts 158°
2026-04-24 12:34 21.68603 89.06906 23507 ft 434 kts 158°
2026-04-24 12:34 21.65842 89.08259 23800 ft 436 kts 159°
2026-04-24 12:35 21.63096 89.09602 24083 ft 439 kts 159°
2026-04-24 12:35 21.60302 89.10970 24371 ft 441 kts 158°
2026-04-24 12:35 21.57660 89.12733 24662 ft 450 kts 142°
2026-04-24 12:35 21.55424 89.15059 24926 ft 454 kts 137°
2026-04-24 12:36 21.53208 89.17498 25203 ft 457 kts 137°
2026-04-24 12:36 21.50988 89.19966 25476 ft 460 kts 137°
2026-04-24 12:36 21.48757 89.22458 25743 ft 463 kts 137°
2026-04-24 12:36 21.46514 89.24958 25987 ft 466 kts 137°
2026-04-24 12:37 21.44256 89.27471 26208 ft 469 kts 137°
2026-04-24 12:37 21.42008 89.29966 26443 ft 472 kts 137°
2026-04-24 12:37 21.39710 89.32508 26692 ft 475 kts 138°
2026-04-24 12:37 21.37402 89.35055 26941 ft 477 kts 138°
2026-04-24 12:38 21.35072 89.37625 27195 ft 480 kts 138°
2026-04-24 12:38 21.32736 89.40200 27452 ft 482 kts 138°
2026-04-24 12:38 21.30393 89.42787 27714 ft 485 kts 138°
2026-04-24 12:39 21.23301 89.50617 28492 ft 492 kts 138°
2026-04-24 12:39 21.20911 89.53241 28851 ft 492 kts 139°
2026-04-24 12:39 21.18517 89.55868 29222 ft 492 kts 139°
2026-04-24 12:40 21.16121 89.58498 29578 ft 492 kts 139°
2026-04-24 12:40 21.13726 89.61128 29923 ft 493 kts 139°
2026-04-24 12:40 21.11365 89.63724 30279 ft 491 kts 139°
2026-04-24 12:40 21.08989 89.66337 30679 ft 489 kts 139°
2026-04-24 12:41 21.06617 89.68946 31092 ft 487 kts 139°
2026-04-24 12:41 21.04253 89.71546 31509 ft 484 kts 139°
2026-04-24 12:41 21.01905 89.74125 31929 ft 482 kts 140°
2026-04-24 12:41 20.99568 89.76691 32361 ft 479 kts 140°
2026-04-24 12:42 20.97271 89.79211 32787 ft 477 kts 140°
2026-04-24 12:42 20.94947 89.81757 33234 ft 474 kts 140°
2026-04-24 12:42 20.92643 89.84279 33673 ft 472 kts 140°
2026-04-24 12:42 20.90375 89.86760 34044 ft 470 kts 140°
2026-04-24 12:43 20.88087 89.89257 34344 ft 469 kts 141°
2026-04-24 12:43 20.85795 89.91758 34601 ft 470 kts 141°
2026-04-24 12:43 20.83507 89.94254 34855 ft 470 kts 141°
2026-04-24 12:43 20.81217 89.96753 35101 ft 471 kts 141°
2026-04-24 12:44 20.78919 89.99261 35364 ft 470 kts 140°
2026-04-24 12:44 20.76630 90.01762 35618 ft 470 kts 140°
2026-04-24 12:44 20.74341 90.04260 35845 ft 471 kts 140°
2026-04-24 12:44 20.72068 90.06740 36079 ft 471 kts 140°
2026-04-24 12:45 20.69774 90.09246 36307 ft 472 kts 140°
2026-04-24 12:45 20.67469 90.11761 36537 ft 472 kts 140°
2026-04-24 12:45 20.65153 90.14282 36739 ft 473 kts 141°
2026-04-24 12:46 20.60525 90.19303 36811 ft 482 kts 140°
2026-04-24 12:46 20.55797 90.24442 36815 ft 487 kts 140°
2026-04-24 12:47 20.51054 90.29607 36807 ft 487 kts 140°
2026-04-24 12:47 20.46286 90.34788 36790 ft 487 kts 140°
2026-04-24 12:48 20.41562 90.39910 36808 ft 486 kts 140°
2026-04-24 12:48 20.36795 90.45064 36811 ft 487 kts 140°
2026-04-24 12:49 20.32063 90.50182 36819 ft 487 kts 140°
2026-04-24 12:49 20.27295 90.55344 36815 ft 487 kts 140°
2026-04-24 12:50 20.22537 90.60496 36814 ft 487 kts 140°
2026-04-24 12:50 20.17765 90.65638 36819 ft 487 kts 140°
2026-04-24 12:51 20.13021 90.70750 36808 ft 488 kts 140°
2026-04-24 12:51 20.08252 90.75889 36818 ft 487 kts 140°
2026-04-24 12:52 20.03480 90.81028 36821 ft 487 kts 140°
2026-04-24 12:52 19.98702 90.86162 36825 ft 488 kts 140°
2026-04-24 12:53 19.93950 90.91258 36825 ft 488 kts 140°
2026-04-24 12:53 19.89175 90.96383 36825 ft 488 kts 140°
2026-04-24 12:54 19.84393 91.01512 36829 ft 488 kts 140°
2026-04-24 12:54 19.79604 91.06645 36831 ft 488 kts 140°
2026-04-24 12:55 19.74857 91.11738 36829 ft 487 kts 140°
2026-04-24 12:55 19.70072 91.16849 36830 ft 487 kts 140°
2026-04-24 12:56 19.65291 91.21960 36832 ft 487 kts 140°
2026-04-24 12:56 19.60539 91.27027 36829 ft 487 kts 140°
2026-04-24 12:57 19.55756 91.32122 36829 ft 487 kts 140°
2026-04-24 12:57 19.50974 91.37217 36832 ft 487 kts 140°
2026-04-24 12:58 19.46187 91.42309 36834 ft 487 kts 140°
2026-04-24 12:58 19.41414 91.47382 36831 ft 486 kts 140°
2026-04-24 12:59 19.36641 91.52462 36838 ft 486 kts 140°
2026-04-24 12:59 19.32276 91.57097 36837 ft 486 kts 140°
2026-04-24 13:00 19.27496 91.62164 36837 ft 486 kts 140°
2026-04-24 13:00 19.22721 91.67229 36840 ft 486 kts 140°
2026-04-24 13:01 19.17971 91.72266 36840 ft 486 kts 140°
2026-04-24 13:01 19.13179 91.77325 36834 ft 485 kts 140°
2026-04-24 13:02 19.08415 91.82358 36830 ft 485 kts 140°
2026-04-24 13:02 19.03632 91.87414 36831 ft 485 kts 140°
2026-04-24 13:03 18.98846 91.92464 36831 ft 485 kts 140°
2026-04-24 13:03 18.94086 91.97487 36837 ft 485 kts 139°
2026-04-24 13:04 18.89617 92.02888 36834 ft 490 kts 132°
2026-04-24 13:04 18.85405 92.08544 36835 ft 490 kts 132°
2026-04-24 13:05 18.81199 92.14166 36849 ft 490 kts 132°
2026-04-24 13:05 18.76977 92.19810 36850 ft 490 kts 132°
2026-04-24 13:06 18.72748 92.25469 36844 ft 490 kts 132°
2026-04-24 13:06 18.68540 92.31098 36840 ft 490 kts 132°
2026-04-24 13:07 18.64333 92.36716 36839 ft 490 kts 132°
2026-04-24 13:07 18.60101 92.42353 36842 ft 490 kts 132°
2026-04-24 13:08 18.55871 92.47993 36845 ft 490 kts 132°
2026-04-24 13:08 18.51634 92.53626 36845 ft 490 kts 132°
2026-04-24 13:09 18.45283 92.62072 36845 ft 490 kts 132°
2026-04-24 13:09 18.41043 92.67691 36828 ft 490 kts 132°
2026-04-24 13:10 18.36836 92.73279 36844 ft 489 kts 132°
2026-04-24 13:10 18.32601 92.78897 36851 ft 489 kts 132°
2026-04-24 13:11 18.28390 92.84474 36854 ft 489 kts 132°
2026-04-24 13:11 18.24151 92.90084 36854 ft 488 kts 132°
2026-04-24 13:12 18.19919 92.95675 36853 ft 488 kts 132°
2026-04-24 13:12 18.15704 93.01257 36854 ft 488 kts 132°
2026-04-24 13:13 18.11466 93.06858 36851 ft 488 kts 132°
2026-04-24 13:13 18.07256 93.12412 36852 ft 488 kts 132°
2026-04-24 13:14 18.03022 93.17983 36851 ft 487 kts 132°
2026-04-24 13:14 17.98786 93.23561 36856 ft 487 kts 132°
2026-04-24 13:15 17.94581 93.29088 36857 ft 486 kts 132°
2026-04-24 13:15 17.90357 93.34636 36856 ft 486 kts 132°
2026-04-24 13:16 17.86129 93.40189 36853 ft 486 kts 132°
2026-04-24 13:16 17.81903 93.45737 36852 ft 486 kts 132°
2026-04-24 13:17 17.77694 93.51247 36854 ft 486 kts 132°
2026-04-24 13:17 17.73469 93.56786 36854 ft 486 kts 132°
2026-04-24 13:18 17.69233 93.62337 36847 ft 486 kts 132°
2026-04-24 13:18 17.65040 93.67828 36857 ft 484 kts 132°
2026-04-24 13:19 17.60809 93.73354 36857 ft 484 kts 132°
2026-04-24 13:19 17.56592 93.78856 36853 ft 483 kts 132°
2026-04-24 13:20 17.52393 93.84322 36852 ft 484 kts 132°
2026-04-24 13:20 17.48165 93.89823 36852 ft 484 kts 132°
2026-04-24 13:21 17.43965 93.95299 36849 ft 484 kts 132°
2026-04-24 13:21 17.39745 94.00793 36848 ft 484 kts 132°
2026-04-24 13:22 17.35529 94.06281 36839 ft 484 kts 132°
2026-04-24 13:22 17.31313 94.11766 36848 ft 483 kts 132°
2026-04-24 13:23 17.27087 94.17252 36847 ft 483 kts 132°
2026-04-24 13:23 17.22892 94.22705 36847 ft 482 kts 132°
2026-04-24 13:24 17.18670 94.28173 36844 ft 482 kts 132°
2026-04-24 13:24 17.14475 94.33603 36844 ft 482 kts 132°
2026-04-24 13:25 17.10241 94.39073 36848 ft 482 kts 132°
2026-04-24 13:25 17.06012 94.44531 36852 ft 483 kts 132°
2026-04-24 13:26 17.01784 94.49988 36852 ft 483 kts 132°
2026-04-24 13:26 16.97578 94.55418 36847 ft 483 kts 132°
2026-04-24 13:27 16.93347 94.60881 36843 ft 482 kts 131°
2026-04-24 13:27 16.89125 94.66321 36845 ft 482 kts 131°
2026-04-24 13:28 16.84906 94.71762 36842 ft 482 kts 131°
2026-04-24 13:28 16.80820 94.77264 36839 ft 483 kts 124°
2026-04-24 13:29 16.77644 94.83485 36841 ft 485 kts 119°
2026-04-24 13:29 16.74567 94.89770 36835 ft 485 kts 119°
2026-04-24 13:30 16.71509 94.96015 36840 ft 486 kts 119°
2026-04-24 13:30 16.68419 95.02293 36844 ft 486 kts 119°
2026-04-24 13:31 16.65327 95.08560 36841 ft 486 kts 119°
2026-04-24 13:31 16.62225 95.14829 36840 ft 485 kts 119°
2026-04-24 13:32 16.59145 95.21066 36843 ft 485 kts 119°
2026-04-24 13:32 16.56063 95.27316 36840 ft 484 kts 119°
2026-04-24 13:33 16.52991 95.33518 36837 ft 484 kts 119°
2026-04-24 13:33 16.49894 95.39749 36837 ft 483 kts 119°
2026-04-24 13:34 16.46794 95.45981 36837 ft 483 kts 119°
2026-04-24 13:34 16.43734 95.52166 36834 ft 483 kts 119°
2026-04-24 13:35 16.40649 95.58400 36834 ft 483 kts 119°
2026-04-24 13:35 16.37559 95.64624 36832 ft 483 kts 119°
2026-04-24 13:36 16.34482 95.70799 36833 ft 483 kts 119°
2026-04-24 13:36 16.31385 95.77012 36831 ft 482 kts 119°
2026-04-24 13:37 16.28306 95.83184 36831 ft 482 kts 119°
2026-04-24 13:37 16.25208 95.89382 36831 ft 481 kts 119°
2026-04-24 13:38 16.22636 95.94519 36834 ft 481 kts 119°
2026-04-24 13:38 16.19055 96.01703 36834 ft 480 kts 118°
2026-04-24 13:39 16.15979 96.07872 36829 ft 480 kts 118°
2026-04-24 13:39 16.13416 96.12997 36832 ft 480 kts 118°
2026-04-24 13:40 16.10320 96.19149 36835 ft 479 kts 118°
2026-04-24 13:40 16.07241 96.25295 36840 ft 478 kts 118°
2026-04-24 13:41 16.04184 96.31393 36840 ft 478 kts 118°
2026-04-24 13:41 16.00598 96.38533 36839 ft 478 kts 118°
2026-04-24 13:42 15.98034 96.43633 36837 ft 478 kts 118°
2026-04-24 13:42 15.94948 96.49766 36846 ft 478 kts 118°
2026-04-24 13:43 15.91863 96.55891 36842 ft 478 kts 118°
2026-04-24 13:43 15.88790 96.61980 36832 ft 477 kts 118°
2026-04-24 13:44 15.85706 96.68093 36839 ft 477 kts 118°
2026-04-24 13:44 15.82627 96.74196 36844 ft 477 kts 118°
2026-04-24 13:45 15.79540 96.80306 36853 ft 477 kts 118°
2026-04-24 13:45 15.76468 96.86367 36852 ft 476 kts 118°
2026-04-24 13:46 15.73373 96.92471 36843 ft 476 kts 118°
2026-04-24 13:46 15.70290 96.98561 36848 ft 476 kts 118°
2026-04-24 13:47 15.67228 97.04613 36843 ft 476 kts 118°
2026-04-24 13:47 15.64131 97.10707 36847 ft 476 kts 118°
2026-04-24 13:48 15.61038 97.16785 36851 ft 476 kts 118°
2026-04-24 13:48 15.57964 97.22830 36845 ft 476 kts 118°
2026-04-24 13:49 15.54864 97.28933 36852 ft 476 kts 118°
2026-04-24 13:49 15.51795 97.34968 36847 ft 476 kts 118°
2026-04-24 13:50 15.48698 97.41036 36868 ft 474 kts 118°
2026-04-24 13:50 15.45613 97.47082 36868 ft 473 kts 118°
2026-04-24 13:51 15.42588 97.53089 36865 ft 472 kts 117°
2026-04-24 13:51 15.39656 97.59182 36868 ft 471 kts 117°
2026-04-24 13:52 15.36760 97.65278 36876 ft 470 kts 117°
2026-04-24 13:52 15.33859 97.71309 36876 ft 470 kts 117°
2026-04-24 13:53 15.30913 97.77381 36871 ft 470 kts 117°
2026-04-24 13:53 15.27992 97.83412 36884 ft 470 kts 117°
2026-04-24 13:54 15.25053 97.89488 36887 ft 470 kts 117°
2026-04-24 13:54 15.22137 97.95516 36888 ft 470 kts 117°
2026-04-24 13:55 15.19198 98.01570 36892 ft 470 kts 117°
2026-04-24 13:55 15.16260 98.07626 36900 ft 469 kts 117°
2026-04-24 13:56 15.13342 98.13636 36901 ft 469 kts 117°
2026-04-24 13:56 15.10405 98.19666 36906 ft 469 kts 117°
2026-04-24 13:57 15.07452 98.25692 36901 ft 468 kts 117°
2026-04-24 13:57 15.04479 98.31657 36898 ft 468 kts 118°
2026-04-24 13:58 15.01479 98.37649 36914 ft 468 kts 118°
2026-04-24 13:58 14.98491 98.43638 36907 ft 468 kts 117°
2026-04-24 13:59 14.95503 98.49637 36927 ft 467 kts 117°
2026-04-24 13:59 14.92539 98.55578 36925 ft 467 kts 117°
2026-04-24 14:00 14.89548 98.61572 36921 ft 467 kts 118°
2026-04-24 14:00 14.86580 98.67510 36931 ft 467 kts 118°
2026-04-24 14:01 14.83592 98.73487 36927 ft 468 kts 117°
2026-04-24 14:01 14.80607 98.79465 36935 ft 467 kts 117°
2026-04-24 14:02 14.77613 98.85437 36934 ft 467 kts 118°
2026-04-24 14:02 14.74617 98.91397 36938 ft 466 kts 117°
2026-04-24 14:03 14.71652 98.97309 36943 ft 465 kts 117°
2026-04-24 14:03 14.68671 99.03247 36933 ft 465 kts 117°
2026-04-24 14:04 14.67170 99.06233 36784 ft 473 kts 117°
2026-04-24 14:04 14.65644 99.09275 36477 ft 480 kts 117°
2026-04-24 14:04 14.64122 99.12316 35712 ft 484 kts 117°
2026-04-24 14:04 14.62565 99.15426 34888 ft 489 kts 117°
2026-04-24 14:05 14.60999 99.18546 34242 ft 489 kts 117°
2026-04-24 14:05 14.59419 99.21684 33270 ft 495 kts 117°
2026-04-24 14:05 14.57848 99.24799 32548 ft 484 kts 117°
2026-04-24 14:05 14.56298 99.27866 31661 ft 477 kts 117°
2026-04-24 14:06 14.54771 99.30884 31152 ft 471 kts 116°
2026-04-24 14:06 14.53251 99.33890 30550 ft 469 kts 116°
2026-04-24 14:06 14.51765 99.36841 29979 ft 467 kts 116°
2026-04-24 14:06 14.50269 99.39818 29328 ft 464 kts 116°
2026-04-24 14:07 14.48787 99.42762 28746 ft 460 kts 116°
2026-04-24 14:07 14.47316 99.45676 28170 ft 456 kts 116°
2026-04-24 14:07 14.45848 99.48577 27596 ft 452 kts 116°
2026-04-24 14:07 14.44567 99.51525 27035 ft 448 kts 108°
2026-04-24 14:08 14.43811 99.54613 26483 ft 442 kts 97°
2026-04-24 14:08 14.43541 99.57726 25955 ft 438 kts 92°
2026-04-24 14:08 14.43355 99.60863 25439 ft 434 kts 92°
2026-04-24 14:08 14.43165 99.63964 24935 ft 431 kts 92°
2026-04-24 14:09 14.42970 99.67038 24441 ft 428 kts 92°
2026-04-24 14:09 14.42775 99.70090 23956 ft 425 kts 93°
2026-04-24 14:09 14.42580 99.73129 23483 ft 422 kts 93°
2026-04-24 14:09 14.42389 99.76139 22980 ft 419 kts 93°
2026-04-24 14:10 14.42263 99.78121 22668 ft 416 kts 93°
2026-04-24 14:10 14.42013 99.82057 22045 ft 411 kts 93°
2026-04-24 14:10 14.41828 99.84991 21574 ft 408 kts 93°
2026-04-24 14:10 14.41643 99.87898 21084 ft 405 kts 94°
2026-04-24 14:11 14.41457 99.90801 20598 ft 402 kts 93°
2026-04-24 14:11 14.41271 99.93671 20100 ft 400 kts 93°
2026-04-24 14:11 14.40905 99.99344 19096 ft 396 kts 94°
2026-04-24 14:12 14.40723 100.02175 18584 ft 394 kts 94°
2026-04-24 14:12 14.40535 100.04992 18050 ft 388 kts 96°
2026-04-24 14:12 14.40053 100.07678 17623 ft 381 kts 105°
2026-04-24 14:12 14.39388 100.10305 17265 ft 374 kts 104°
2026-04-24 14:13 14.38746 100.12882 17110 ft 369 kts 104°
2026-04-24 14:13 14.38109 100.15447 16838 ft 368 kts 104°
2026-04-24 14:13 14.37474 100.17998 16566 ft 366 kts 104°
2026-04-24 14:13 14.36835 100.20545 16291 ft 365 kts 104°
2026-04-24 14:14 14.36210 100.23040 16028 ft 363 kts 104°
2026-04-24 14:14 14.35574 100.25588 15756 ft 362 kts 104°
2026-04-24 14:14 14.34332 100.30559 15226 ft 357 kts 104°
2026-04-24 14:15 14.33712 100.33040 14964 ft 356 kts 104°
2026-04-24 14:15 14.33094 100.35502 14651 ft 355 kts 104°
2026-04-24 14:15 14.32477 100.37961 14273 ft 352 kts 104°
2026-04-24 14:15 14.31866 100.40398 13916 ft 350 kts 104°
2026-04-24 14:16 14.31262 100.42794 13781 ft 338 kts 104°
2026-04-24 14:16 14.30688 100.45079 13671 ft 327 kts 104°
2026-04-24 14:16 14.30126 100.47319 13461 ft 320 kts 103°
2026-04-24 14:17 14.29024 100.51704 13018 ft 313 kts 104°
2026-04-24 14:17 14.28477 100.53870 12779 ft 311 kts 104°
2026-04-24 14:17 14.27392 100.58186 12304 ft 309 kts 104°
2026-04-24 14:18 14.26860 100.60305 12071 ft 308 kts 104°
2026-04-24 14:18 14.26316 100.62438 11842 ft 307 kts 106°
2026-04-24 14:18 14.25343 100.64379 11612 ft 305 kts 131°
2026-04-24 14:18 14.23654 100.65679 11370 ft 304 kts 158°
2026-04-24 14:19 14.22304 100.66052 11208 ft 304 kts 175°
2026-04-24 14:19 14.19550 100.65668 10899 ft 303 kts 194°
2026-04-24 14:19 14.17501 100.65126 10659 ft 302 kts 194°
2026-04-24 14:19 14.15464 100.64580 10432 ft 302 kts 195°
2026-04-24 14:20 14.13437 100.64038 10200 ft 300 kts 194°
2026-04-24 14:20 14.11448 100.63510 10005 ft 298 kts 194°
2026-04-24 14:20 14.09433 100.62979 9904 ft 299 kts 194°
2026-04-24 14:20 14.07420 100.62451 9702 ft 298 kts 194°
2026-04-24 14:21 14.05408 100.61922 9459 ft 297 kts 194°
2026-04-24 14:21 14.03422 100.61398 9284 ft 290 kts 194°
2026-04-24 14:21 14.01466 100.61111 9153 ft 280 kts 173°
2026-04-24 14:21 13.99705 100.61802 9035 ft 269 kts 140°
2026-04-24 14:22 13.98616 100.63264 8844 ft 262 kts 111°
2026-04-24 14:22 13.98099 100.65042 8433 ft 257 kts 104°
2026-04-24 14:22 13.97198 100.68586 7839 ft 254 kts 103°
2026-04-24 14:23 13.97107 100.70370 7547 ft 250 kts 75°
2026-04-24 14:23 13.97932 100.71899 7226 ft 245 kts 44°
2026-04-24 14:23 13.99381 100.72753 6779 ft 245 kts 16°
2026-04-24 14:23 14.01042 100.73189 6276 ft 246 kts 15°
2026-04-24 14:24 14.02710 100.73638 5582 ft 252 kts 19°
2026-04-24 14:24 14.03770 100.74175 5042 ft 262 kts 39°
2026-04-24 14:24 14.05093 100.76236 4449 ft 265 kts 78°
2026-04-24 14:24 14.05176 100.78119 4090 ft 263 kts 98°
2026-04-24 14:25 14.04922 100.79338 3882 ft 262 kts 110°
2026-04-24 14:25 14.03770 100.81463 3710 ft 249 kts 131°
2026-04-24 14:25 14.02964 100.82285 3633 ft 242 kts 141°
2026-04-24 14:25 14.01566 100.83181 3510 ft 233 kts 156°
2026-04-24 14:26 14.00048 100.83660 3388 ft 224 kts 170°
2026-04-24 14:26 13.98544 100.83733 3274 ft 215 kts 184°
2026-04-24 14:26 13.97106 100.83456 3165 ft 206 kts 192°
2026-04-24 14:26 13.95762 100.83100 3048 ft 192 kts 192°
2026-04-24 14:27 13.94481 100.82764 2755 ft 188 kts 192°
2026-04-24 14:27 13.93220 100.82432 2601 ft 186 kts 192°
2026-04-24 14:27 13.91966 100.82102 2597 ft 186 kts 192°
2026-04-24 14:27 13.90721 100.81774 2592 ft 187 kts 192°
2026-04-24 14:28 13.89467 100.81444 2590 ft 181 kts 192°
2026-04-24 14:28 13.88290 100.81133 2581 ft 171 kts 192°
2026-04-24 14:28 13.87149 100.80833 2609 ft 167 kts 192°
2026-04-24 14:28 13.86027 100.80538 2613 ft 166 kts 192°
2026-04-24 14:29 13.84911 100.80244 2597 ft 164 kts 191°
2026-04-24 14:29 13.83817 100.79957 2593 ft 164 kts 191°
2026-04-24 14:29 13.82708 100.79665 2528 ft 165 kts 192°
2026-04-24 14:29 13.81594 100.79372 2370 ft 165 kts 192°
2026-04-24 14:30 13.80487 100.79080 2182 ft 162 kts 192°
2026-04-24 14:30 13.79392 100.78792 1977 ft 162 kts 192°
2026-04-24 14:30 13.78319 100.78510 1776 ft 161 kts 193°
2026-04-24 14:30 13.77242 100.78226 1578 ft 158 kts 193°
2026-04-24 14:31 13.76176 100.77946 1373 ft 158 kts 194°
2026-04-24 14:31 13.75110 100.77666 1169 ft 158 kts 193°
2026-04-24 14:31 13.74040 100.77384 966 ft 160 kts 194°
2026-04-24 14:31 13.72957 100.77099 779 ft 159 kts 195°
2026-04-24 14:32 13.71891 100.76811 528 ft 160 kts 196°
2026-04-24 14:32 13.70805 100.76534 336 ft 157 kts 195°
2026-04-24 14:32 13.69746 100.76256 181 ft 156 kts 193°
2026-04-24 14:32 13.68701 100.75977 19 ft 148 kts 194°
2026-04-24 14:33 13.67908 100.75773 11 ft 93 kts 194°
2026-04-24 14:33 13.67564 100.75658 11 ft 21 kts 228°
2026-04-24 14:33 13.67478 100.75560 13 ft 12 kts 225°
2026-04-24 14:33 13.67471 100.75484 14 ft 13 kts 318°
2026-04-24 14:34 13.67559 100.75484 13 ft 14 kts 22°
2026-04-24 14:34 13.67655 100.75516 13 ft 16 kts
2026-04-24 14:34 13.67765 100.75544 13 ft 17 kts 14°
2026-04-24 14:34 13.67891 100.75577 13 ft 19 kts 14°
2026-04-24 14:35 13.68029 100.75613 13 ft 22 kts 14°
2026-04-24 14:35 13.68180 100.75653 14 ft 24 kts 15°
2026-04-24 14:35 13.68301 100.75657 13 ft 14 kts 321°
2026-04-24 14:35 13.68340 100.75555 13 ft 17 kts 280°
2026-04-24 14:36 13.68375 100.75435 15 ft 17 kts 308°
2026-04-24 14:36 13.68483 100.75432 13 ft 17 kts 14°
2026-04-24 14:36 13.68558 100.75451 13 ft 11 kts 15°
2026-04-24 14:36 13.68626 100.75469 13 ft 5 kts 14°
2026-04-24 14:37 13.68663 100.75478 13 ft 6 kts
2026-04-24 14:37 13.68690 100.75456 13 ft 5 kts 291°
2026-04-24 14:37 13.68699 100.75420 13 ft 6 kts 285°
2026-04-24 14:37 13.68707 100.75389 15 ft 1 kts 284°
2026-04-24 14:38 13.68708 100.75384 14 ft 0 kts 284°